Retour au catalogue

NAVSTAR 78

USA 293

ActifNavigationHEO
NORAD 44506·PAYLOAD·🇺🇸 United States

Lancé Aug 22, 2019 depuis Cape Canaveral Space Force Station

Loading…

Prochains Passages (prochaines 24 heures)

TLE

FraisSource: CelesTrak SupGP

Époque: Sep 16, 2026, 16:44 UTC

1 44506C 19056A   26259.69756944  .00000000  00000+0  00000+0 0  2591
2 44506  55.5863 327.5027 0065928 200.0794  24.4728  2.00571821    15

Suivez NAVSTAR 78 en temps réel avec AllMySat

Download on the App Store